THORAD AGENA D DEB *, 5967

Orbit data source: Space-Track

THORAD AGENA D DEB *, 5967 is space debris in SSO originally from a launch on Wed, 08 Apr 1970 UTC launched from the Air Force Western Test Range (AFWTR). Debris objects in space refer to the collection of defunct objects orbiting the Earth. Examples of debris include non-operational satellites, rocket bodies, and fragments generated from explosions, collisions, or faulty payload assembly.

Loading next visibility...
Identifier
5967, 1970-025MQ
Orbit
SSO
Country
Flag of USUS
Related business
Manufacturer
Unknown
Mission
Spacecraft
Bus & Motor
Unknown
Mass
Unknown
Launch date (UTC)
1970-04-08 (56 years ago)
Launch vehicle
Unknown
Launch site
Air Force Western Test Range (AFWTR)
Object type
Payload
Rocket body
Debris
Shape & HBR
Unknown shape, 0.1 m
Radar Cross Section
Small (<0.1 m²)

Expand to show TLE details & history
Last TLE update: 11 hours ago

TLE from 11 hours ago
0 THORAD AGENA D DEB *
1 05967U 70025MQ  25348.93248112 -.00000194  00000-0 -50344-3 0  9998
2 05967 101.6468 227.1755 0130074 283.2748  97.0225 12.93216465614637
Epoch: 2025-12-14T22:22Z
TLE epoch observation values (Epoch: 2025-12-14T22:22:46.368Z)
Latitude
21.31463°
Longitude
163.05416°
Altitude
1,304.616 km
Speed
7.2 km/s
True Right ascension
14h 50m 20s
True Declination
21° 12' 24"
Sunlit
Object was in daylight at epoch
Visualization orbit readout
Latitude
Unknown
Longitude
Unknown
Altitude
Unknown
Speed
Unknown
Apparent Right ascension
Unknown
Apparent Declination
Unknown
Sunlit
N/A
Visualization observer readout
Local Sidereal Time
07:49:19
Azimuth
Unknown
Elevation
Unknown
Doppler factor
Unknown
Orbital elements
Apogee altitude
1,385.962 km
Perigee altitude
1,186.574 km
Semi-major axis
7,664.405 km
Eccentricity
0.01301
Inclination
101.6468°
RAAN
227.1755°
Arg. of periapsis
283.2748°
True anomaly
98.49876°
Mean anomaly
97.0225°
Eccentric anomaly
97.76094°
Mean motion
3.23464 °/min
Orbital period
111.3 mins
BSTAR
-0.00050344
Loading maneuver chart data...
Computing Atmospheric mass density...

Documentation

Showing up to 5 results
|